| time (UTC) | temp F | wind direction | speed MPH | gust MPH | rain 1hr in | rain 24hr in | rain mn in | humidity % | barometer mb |
| 20260904153538 | 81 | 221 | 1.0 | 3.0 | 0.00 | 0.06 | 0.02 | 70 | 1011.9 |
| 20260904152027 | 80 | 107 | 1.0 | 4.0 | 0.00 | 0.06 | 0.02 | 71 | 1012.1 |
| 20260904150528 | 80 | 153 | 1.0 | 3.0 | 0.00 | 0.06 | 0.02 | 74 | 1012.1 |
| 20260904145031 | 81 | 155 | 0.0 | 4.0 | 0.00 | 0.06 | 0.02 | 74 | 1012.4 |
| 20260904143539 | 80 | 29 | 1.0 | 5.0 | 0.00 | 0.06 | 0.02 | 74 | 1012.3 |
| 20260904142031 | 80 | 179 | 2.0 | 7.0 | 0.00 | 0.06 | 0.02 | 79 | 1012.3 |
| 20260904140536 | 79 | 169 | 0.0 | 3.0 | 0.00 | 0.06 | 0.02 | 83 | 1012.1 |
| 20260904135040 | 78 | 24 | 1.0 | 3.0 | 0.00 | 0.06 | 0.02 | 86 | 1011.9 |
| 20260904133528 | 77 | 57 | 1.0 | 5.0 | 0.00 | 0.06 | 0.02 | 90 | 1011.9 |
| 20260904132037 | 76 | 64 | 1.0 | 3.0 | 0.00 | 0.06 | 0.02 | 94 | 1012.0 |
| 20260904130547 | 74 | 21 | 0.0 | 1.0 | 0.00 | 0.06 | 0.02 | 96 | 1011.9 |
| 20260904125029 | 73 | 146 | 0.0 | 2.0 | 0.00 | 0.06 | 0.02 | 96 | 1012.0 |
| 20260904123534 | 72 | 242 | 1.0 | 3.0 | 0.00 | 0.06 | 0.02 | 96 | 1012.1 |
| 20260904122104 | 71 | 125 | 0.0 | 1.0 | 0.00 | 0.06 | 0.02 | 97 | 1012.2 |
| 20260904120541 | 70 | 122 | 0.0 | 3.0 | 0.00 | 0.06 | 0.02 | 97 | 1011.9 |
| 20260904115043 | 69 | 159 | 0.0 | 0.0 | 0.00 | 0.06 | 0.02 | 97 | 1012.2 |
| 20260904113530 | 69 | 159 | 0.0 | 0.0 | 0.00 | 0.06 | 0.02 | 97 | 1011.9 |
| 20260904112037 | 69 | 159 | 0.0 | 0.0 | 0.00 | 0.06 | 0.02 | 97 | 1011.8 |
| 20260904110528 | 69 | 159 | 0.0 | 0.0 | 0.00 | 0.06 | 0.02 | 97 | 1011.6 |
| 20260904105044 | 69 | 279 | 0.0 | 0.0 | 0.00 | 0.06 | 0.02 | 97 | 1011.4 |
| 20260904103535 | 69 | 279 | 0.0 | 0.0 | 0.00 | 0.06 | 0.02 | 97 | 1011.4 |
| 20260904102044 | 69 | 279 | 0.0 | 0.0 | 0.00 | 0.06 | 0.02 | 97 | 1011.2 |
| 20260904100536 | 69 | 279 | 0.0 | 0.0 | 0.00 | 0.06 | 0.02 | 97 | 1011.1 |
| 20260904095039 | 69 | 279 | 0.0 | 0.0 | 0.00 | 0.06 | 0.02 | 97 | 1011.0 |
| 20260904093529 | 69 | 279 | 0.0 | 0.0 | 0.00 | 0.06 | 0.02 | 97 | 1011.1 |
| 20260904092037 | 70 | 279 | 0.0 | 0.0 | 0.00 | 0.06 | 0.02 | 97 | 1011.1 |
| 20260904090526 | 70 | 279 | 0.0 | 0.0 | 0.00 | 0.06 | 0.02 | 97 | 1011.2 |
| 20260904085030 | 70 | 279 | 0.0 | 0.0 | 0.00 | 0.07 | 0.02 | 97 | 1011.1 |
| 20260904083537 | 70 | 279 | 0.0 | 0.0 | 0.00 | 0.07 | 0.02 | 97 | 1011.1 |
| 20260904082028 | 70 | 279 | 0.0 | 0.0 | 0.00 | 0.07 | 0.02 | 97 | 1011.3 |
| 20260904080604 | 70 | 279 | 0.0 | 0.0 | 0.00 | 0.07 | 0.02 | 97 | 1011.0 |
| 20260904075045 | 70 | 279 | 0.0 | 0.0 | 0.00 | 0.25 | 0.02 | 96 | 1010.9 |
| 20260904073533 | 71 | 279 | 0.0 | 0.0 | 0.00 | 0.25 | 0.02 | 96 | 1010.7 |
| 20260904072036 | 71 | 279 | 0.0 | 0.0 | 0.00 | 0.25 | 0.02 | 96 | 1010.5 |
| 20260904070544 | 71 | 279 | 0.0 | 0.0 | 0.00 | 0.25 | 0.02 | 96 | 1010.4 |
| 20260904065043 | 72 | 279 | 0.0 | 0.0 | 0.00 | 0.31 | 0.02 | 96 | 1010.1 |
| 20260904063548 | 72 | 279 | 0.0 | 0.0 | 0.00 | 0.31 | 0.02 | 97 | 1010.3 |
| 20260904062059 | 72 | 279 | 0.0 | 1.0 | 0.00 | 0.31 | 0.02 | 97 | 1010.4 |
| 20260904060526 | 72 | 279 | 0.0 | 0.0 | 0.00 | 0.31 | 0.02 | 97 | 1010.7 |
| 20260904055045 | 72 | 279 | 0.0 | 1.0 | 0.01 | 0.49 | 0.02 | 97 | 1010.7 |
| 20260904053533 | 72 | 279 | 0.0 | 0.0 | 0.02 | 0.49 | 0.02 | 97 | 1011.0 |
| 20260904052041 | 72 | 279 | 0.0 | 2.0 | 0.02 | 0.49 | 0.02 | 97 | 1010.9 |
| 20260904050550 | 73 | 53 | 0.0 | 2.0 | 0.02 | 0.49 | 0.02 | 97 | 1010.8 |
| 20260904045034 | 72 | 7 | 0.0 | 0.0 | 0.01 | 0.69 | 0.01 | 97 | 1011.7 |
| 20260904043542 | 72 | 7 | 0.0 | 0.0 | 0.00 | 0.68 | 0.00 | 96 | 1011.4 |
| 20260904042033 | 72 | 7 | 0.0 | 0.0 | 0.00 | 0.68 | 0.00 | 96 | 1011.4 |
| 20260904040542 | 72 | 7 | 0.0 | 0.0 | 0.00 | 0.68 | 0.00 | 96 | 1011.3 |
| 20260904035038 | 72 | 27 | 0.0 | 0.0 | 0.00 | 0.91 | 0.68 | 96 | 1011.7 |
| 20260904033527 | 72 | 27 | 0.0 | 0.0 | 0.00 | 0.91 | 0.68 | 96 | 1011.9 |
| 20260904032038 | 73 | 27 | 0.0 | 0.0 | 0.00 | 0.91 | 0.68 | 96 | 1012.0 |
| 20260904030546 | 73 | 27 | 0.0 | 0.0 | 0.00 | 0.91 | 0.68 | 96 | 1011.9 |
| 20260904025030 | 73 | 27 | 0.0 | 0.0 | 0.04 | 0.91 | 0.68 | 96 | 1011.5 |
| 20260904023541 | 73 | 27 | 0.0 | 1.0 | 0.04 | 0.91 | 0.68 | 96 | 1011.6 |
| 20260904022052 | 74 | 250 | 0.0 | 1.0 | 0.04 | 0.91 | 0.68 | 95 | 1011.7 |
| 20260904020559 | 74 | 250 | 0.0 | 2.0 | 0.03 | 0.90 | 0.67 | 95 | 1012.0 |
| 20260904015100 | 74 | 231 | 0.0 | 0.0 | 0.00 | 0.87 | 0.64 | 95 | 1012.7 |
| 20260904013526 | 74 | 231 | 0.0 | 0.0 | 0.00 | 0.87 | 0.64 | 95 | 1012.3 |
| 20260904012038 | 74 | 231 | 0.0 | 0.0 | 0.00 | 0.87 | 0.64 | 94 | 1012.3 |
| 20260904010529 | 74 | 231 | 0.0 | 1.0 | 0.00 | 0.87 | 0.64 | 95 | 1012.4 |
| 20260904005036 | 74 | 231 | 0.0 | 0.0 | 0.00 | 0.87 | 0.64 | 94 | 1012.6 |
| 20260904003526 | 74 | 231 | 0.0 | 0.0 | 0.00 | 0.87 | 0.64 | 93 | 1012.4 |
| 20260904002049 | 75 | 231 | 0.0 | 0.0 | 0.00 | 0.87 | 0.64 | 93 | 1012.3 |
| 20260904000600 | 75 | 231 | 0.0 | 0.0 | 0.00 | 0.87 | 0.64 | 92 | 1012.2 |
| 20260903235044 | 76 | 231 | 0.0 | 0.0 | 0.00 | 0.87 | 0.64 | 91 | 1011.6 |
| 20260903233533 | 76 | 231 | 0.0 | 0.0 | 0.00 | 0.87 | 0.64 | 90 | 1011.9 |
| 20260903232046 | 77 | 231 | 0.0 | 0.0 | 0.00 | 0.87 | 0.64 | 89 | 1011.9 |
| 20260903230601 | 78 | 231 | 0.0 | 0.0 | 0.00 | 0.87 | 0.64 | 89 | 1012.3 |
| 20260903225044 | 79 | 231 | 0.0 | 0.0 | 0.00 | 0.87 | 0.64 | 88 | 1011.7 |
| 20260903223531 | 79 | 231 | 0.0 | 0.0 | 0.00 | 0.87 | 0.64 | 87 | 1011.6 |
| 20260903222037 | 80 | 231 | 0.0 | 0.0 | 0.00 | 0.87 | 0.64 | 86 | 1011.6 |
| 20260903220549 | 80 | 231 | 0.0 | 0.0 | 0.00 | 0.87 | 0.64 | 86 | 1011.6 |
| 20260903215115 | 80 | 231 | 0.0 | 0.0 | 0.00 | 0.87 | 0.64 | 84 | 1011.5 |
| 20260903213604 | 80 | 231 | 0.0 | 0.0 | 0.00 | 0.87 | 0.64 | 82 | 1011.3 |
| 20260903212057 | 81 | 231 | 0.0 | 0.0 | 0.00 | 0.87 | 0.64 | 81 | 1011.3 |
| 20260903210525 | 82 | 231 | 0.0 | 2.0 | 0.00 | 0.87 | 0.64 | 77 | 1011.3 |
| 20260903205031 | 84 | 152 | 0.0 | 5.0 | 0.00 | 0.87 | 0.64 | 71 | 1011.3 |
| 20260903203542 | 84 | 293 | 1.0 | 5.0 | 0.00 | 0.87 | 0.64 | 70 | 1011.3 |
| 20260903202030 | 84 | 178 | 2.0 | 5.0 | 0.00 | 0.87 | 0.64 | 74 | 1011.6 |
| 20260903200543 | 84 | 189 | 1.0 | 5.0 | 0.00 | 0.87 | 0.64 | 70 | 1011.7 |
| 20260903195044 | 84 | 179 | 1.0 | 4.0 | 0.00 | 0.87 | 0.64 | 75 | 1011.6 |
| 20260903193537 | 84 | 121 | 1.0 | 4.0 | 0.00 | 0.87 | 0.64 | 72 | 1011.7 |
| 20260903192030 | 84 | 173 | 0.0 | 3.0 | 0.00 | 0.87 | 0.64 | 75 | 1011.8 |
| 20260903190545 | 84 | 347 | 0.0 | 7.0 | 0.00 | 0.87 | 0.64 | 76 | 1011.9 |
| 20260903185054 | 84 | 127 | 2.0 | 5.0 | 0.00 | 0.87 | 0.64 | 73 | 1012.0 |
| 20260903183540 | 83 | 350 | 1.0 | 4.0 | 0.00 | 0.87 | 0.64 | 75 | 1012.4 |
| 20260903182034 | 83 | 83 | 1.0 | 5.0 | 0.00 | 0.87 | 0.64 | 77 | 1012.4 |
| 20260903180529 | 83 | 332 | 2.0 | 6.0 | 0.00 | 0.87 | 0.64 | 75 | 1012.5 |
| 20260903175059 | 83 | 337 | 1.0 | 6.0 | 0.00 | 0.87 | 0.64 | 76 | 1012.7 |
| 20260903173541 | 82 | 106 | 1.0 | 3.0 | 0.00 | 0.87 | 0.64 | 77 | 1012.7 |
| 20260903172031 | 81 | 309 | 2.0 | 7.0 | 0.00 | 0.87 | 0.64 | 77 | 1012.9 |
| 20260903170543 | 81 | 50 | 0.0 | 7.0 | 0.00 | 0.87 | 0.64 | 82 | 1012.9 |
| 20260903165037 | 80 | 330 | 1.0 | 8.0 | 0.00 | 0.87 | 0.64 | 81 | 1013.1 |
| 20260903163545 | 79 | 218 | 0.0 | 4.0 | 0.00 | 0.87 | 0.64 | 86 | 1013.7 |
| 20260903162043 | 78 | 136 | 2.0 | 3.0 | 0.00 | 0.87 | 0.64 | 88 | 1013.8 |
| 20260903160548 | 77 | 285 | 3.0 | 6.0 | 0.00 | 0.87 | 0.64 | 88 | 1014.0 |
| 20260903155028 | 76 | 298 | 1.0 | 5.0 | 0.00 | 0.87 | 0.64 | 91 | 1014.0 |